Location: Theydon Bois
(51.6750°N, 0.1050°E)
Time: 02:39:17
(UTC+00:00)

Tiangong 2 - Visible Passes

Search period start: 17 December 2017 00:00
Search period end: 27 December 2017 00:00
Orbit: 386 x 390 km, 42.8° (Epoch: 16 December)

Date Brightness Start Highest point End Pass type
(mag) Time Alt. Az. Time Alt. Az. Time Alt. Az.
24 Dec 4.1 18:42:06 10° SSW 18:42:18 11° SSW 18:42:18 11° SSW visible
25 Dec 3.7 17:44:31 10° S 17:45:37 11° SSE 17:46:33 10° SE visible
26 Dec 3.5 18:21:19 10° SW 18:23:03 16° S 18:23:03 16° S visible
